Temperature
30 31 32 32 32 32 32 32 31 31 31 31 30 29 28 27 26 26 25 24 23 23 22 21 20 20 19 19 19 19 19 19 19 18 18 18 18 18 18 18 18 18 18 18
31 31 32 32 31 31 31 31 31 31 30 30 30 29 29 28 27 26 25 25 24 23 22 21 20 20 19 19 19 19 19 19 19 18 18 18 18 18 18 18 18 18 18 18
31 32 32 31 31 31 31 31 31 31 30 30 30 29 29 28 27 26 25 25 24 23 22 21 20 20 19 19 19 19 19 19 19 18 18 17 17 18 17 17 18 18 18 18
31 32 31 31 31 31 31 32 31 31 31 31 31 30 29 29 28 27 26 25 24 23 23 21 21 20 20 19 19 19 19 19 19 18 18 18 18 18 18 18 18 18 18 18
31 31 31 31 31 31 31 31 31 31 31 31 31 31 30 29 29 29 27 26 25 24 23 21 21 20 20 20 19 19 19 19 19 18 18 18 18 18 17 17 17 18 18 18
31 31 31 31 31 31 31 31 31 31 31 30 30 30 30 30 29 29 28 26 25 24 23 21 21 20 20 20 19 19 19 19 19 18 18 18 18 18 17 17 17 17 17 18
30 31 31 31 31 31 31 31 30 30 30 30 30 30 30 30 29 29 28 26 25 24 23 22 21 20 20 20 19 19 19 19 19 18 18 18 18 18 18 18 17 17 18 18
30 30 31 31 31 31 31 31 30 29 30 30 29 30 30 29 28 28 27 26 25 24 23 22 21 21 20 20 19 19 18 18 18 18 18 18 18 17 18 18 17 17 17 18
31 30 31 31 31 31 31 31 32 31 30 30 30 30 30 29 28 28 27 26 25 24 23 22 21 21 20 20 19 19 18 18 18 18 18 18 18 18 17 17 17 17 17 17
31 30 31 30 31 30 31 31 31 30 29 29 30 30 30 29 28 28 27 26 25 24 23 22 21 21 20 20 19 19 18 18 18 18 18 18 18 17 17 17 17 17 17 17
30 30 30 30 30 30 30 30 30 30 30 29 29 30 30 29 28 28 27 26 24 23 23 22 21 20 20 20 20 19 19 18 18 18 18 17 17 17 17 17 17 17 17 17
29 30 29 30 30 30 30 30 30 29 29 29 29 29 29 28 28 27 26 25 24 23 22 21 20 20 20 19 19 19 18 18 18 18 18 17 17 17 17 17 17 17 17 17
28 29 28 29 29 29 29 29 30 30 29 29 29 29 28 27 27 26 25 24 23 22 21 21 20 19 19 19 19 19 18 18 18 18 17 17 17 17 17 17 17 17 17 17
26 28 28 28 29 29 29 29 29 29 29 29 28 28 28 27 26 25 24 23 22 21 21 20 20 19 19 18 18 18 18 18 18 17 17 17 17 17 17 17 17 17 17 16
27 28 28 28 29 29 28 28 28 28 28 28 28 28 27 27 26 25 23 22 22 21 20 20 19 19 18 18 18 18 18 18 17 17 17 17 17 17 17 17 16 16 16 16
26 27 27 27 28 28 27 28 28 28 28 28 28 27 27 26 25 24 23 22 21 20 20 19 19 18 18 18 18 18 17 17 17 17 17 17 16 17 16 16 16 16 16 16
26 26 26 27 27 27 27 27 27 27 27 27 27 27 26 26 25 23 22 21 21 20 19 19 18 18 18 18 18 17 17 17 17 17 16 16 16 16 16 16 16 16 16 16
24 24 26 26 26 25 26 27 27 27 26 26 26 26 25 25 24 23 22 21 20 19 19 18 18 17 17 17 17 17 17 16 17 17 17 16 16 16 16 16 16 15 15 15
24 24 25 26 26 26 26 26 26 26 25 25 25 25 24 23 23 23 21 20 19 18 18 17 17 17 17 17 17 17 16 16 16 16 16 16 16 15 15 15 15 15 15 15
23 23 24 24 24 25 25 25 25 25 25 24 24 24 23 23 25 24 20 19 18 18 17 17 17 17 17 17 17 16 16 16 16 16 16 16 16 15 15 15 15 15 15 14
23 23 23 24 24 25 24 24 24 24 24 22 22 22 22 22 22 20 19 18 18 17 17 17 17 16 16 16 16 16 16 16 16 15 15 15 15 15 15 15 15 14 14 14
23 23 23 23 23 24 23 23 24 22 21 21 21 21 21 20 19 19 18 17 17 16 16 16 16 16 16 16 16 16 15 15 15 15 15 15 15 14 14 14 14 14 14 14
23 23 23 23 23 21 20 21 20 20 20 19 19 19 19 19 19 18 17 17 16 16 16 15 15 15 15 15 15 15 15 15 15 15 14 14 14 14 14 14 14 14 13 13
21 20 21 21 22 21 20 19 19 19 19 18 18 18 18 18 18 17 17 16 16 15 15 15 15 15 15 15 15 15 15 15 15 14 14 14 14 14 13 13 13 13 13 13
21 20 21 20 21 20 19 19 18 18 18 17 17 17 17 17 17 16 16 15 15 15 14 14 14 15 15 14 14 14 14 14 14 14 14 13 13 13 13 13 13 13 13 13
20 20 20 21 20 20 19 18 18 17 17 17 17 16 16 16 16 16 15 15 15 14 14 14 14 14 14 14 14 14 14 14 14 14 13 13 13 13 13 13 12 13 13 13
Wind_Speed
6 6 6 4 4 4 3 3 2 1 2 1 2 3 4 6 6 5 6 5 5 5 6 7 8 8 8 8 7 7 7 6 5 4 4 4 4 3 3 3 3 4 4 4
7 7 5 3 3 5 5 5 3 3 3 1 1 2 3 5 6 5 5 6 5 5 6 7 7 8 8 9 9 8 8 7 6 5 4 3 3 3 3 3 3 4 4 4
9 3 2 5 5 5 6 6 4 3 3 5 3 4 5 5 5 5 5 5 5 5 6 7 8 8 8 9 9 8 8 7 7 6 5 3 3 3 3 3 3 4 4 4
8 6 5 6 5 6 6 4 5 6 7 4 5 3 4 5 5 6 6 6 6 6 6 7 8 8 9 8 8 8 8 8 7 7 6 5 5 4 3 3 3 3 4 5
7 6 7 6 5 5 4 3 5 7 7 7 5 6 2 5 4 5 5 6 6 6 6 7 8 9 8 8 8 8 8 8 8 8 7 6 5 4 3 3 3 4 4 4
7 5 5 6 4 4 3 4 5 7 8 8 5 7 2 2 2 1 3 4 5 6 6 7 7 8 8 8 8 8 7 7 7 7 7 7 6 5 5 4 4 4 3 4
8 8 6 5 6 6 7 7 6 6 7 5 2 6 2 2 1 1 1 3 4 6 7 7 8 8 8 8 8 8 8 7 7 7 6 6 7 7 7 6 5 5 4 4
10 9 8 7 8 7 9 9 7 6 6 3 4 4 1 3 1 0 1 2 3 5 6 6 7 7 7 8 8 8 8 7 7 7 7 6 6 6 5 6 5 4 4 4
7 7 6 5 6 8 8 9 9 9 9 8 4 3 3 3 2 1 1 1 2 3 4 5 6 7 7 7 8 8 8 7 7 7 7 6 6 6 5 5 5 5 4 4
7 7 6 6 7 4 6 7 7 9 8 9 7 7 3 3 2 1 1 1 1 1 3 4 5 5 6 6 7 7 7 7 7 7 6 5 6 6 5 5 5 5 5 4
9 9 7 8 7 7 7 7 7 8 9 10 9 3 2 1 1 2 1 0 1 0 1 3 4 4 4 5 6 7 7 7 7 7 6 6 5 5 5 5 5 5 5 5
8 8 8 9 6 5 7 8 9 9 8 9 10 3 4 1 0 0 0 1 1 1 1 3 4 4 4 4 5 6 6 6 7 6 6 6 5 5 5 5 5 6 5 5
5 7 9 10 10 8 8 8 9 11 10 9 10 4 4 2 1 1 1 1 1 2 2 3 4 3 3 2 3 4 5 6 6 6 6 5 5 5 6 6 5 5 5 5
4 8 10 10 7 7 8 9 9 11 10 10 10 7 2 1 1 1 1 1 1 1 1 2 3 2 2 2 2 2 4 5 5 6 6 6 6 5 5 5 5 4 5 5
4 8 9 8 7 6 8 9 9 10 11 10 8 8 4 2 2 1 1 0 1 1 0 0 1 1 2 1 2 2 3 4 5 5 6 6 6 5 5 5 4 4 5 5
3 6 7 9 9 9 8 8 9 10 9 10 9 7 3 1 1 1 1 1 1 1 1 1 1 1 2 2 2 2 2 3 4 6 6 5 5 4 4 5 5 4 5 5
4 5 8 10 9 10 12 9 9 9 8 9 9 6 2 3 3 2 2 2 2 2 1 1 1 1 2 2 2 2 2 3 4 4 5 4 4 4 5 5 5 5 5 5
6 7 7 8 9 13 6 3 7 9 7 6 5 3 3 4 4 3 2 2 2 2 2 2 2 2 2 2 2 2 2 2 3 4 4 3 3 4 3 4 4 4 4 4
7 7 7 9 11 10 6 5 7 9 8 4 5 4 4 3 4 2 2 2 2 2 2 2 2 2 1 0 0 2 2 2 3 3 4 4 4 4 4 4 4 3 3 4
6 8 9 9 11 11 5 3 4 8 9 2 3 4 4 4 6 3 3 3 2 2 1 1 1 1 1 1 0 1 2 2 3 4 4 3 4 4 4 4 3 3 3 3
7 8 11 12 11 7 0 0 4 8 3 1 2 3 3 4 5 5 4 2 1 1 1 1 1 1 2 1 0 0 2 2 3 3 3 3 3 3 3 3 2 2 3 2
7 7 8 9 11 7 3 2 3 2 3 2 2 3 3 3 3 3 3 2 1 1 1 2 1 2 2 2 1 1 2 2 2 1 1 2 2 2 2 2 2 2 2 2
6 5 4 5 3 2 2 1 2 2 2 3 3 3 3 3 2 2 2 1 1 1 1 1 1 1 2 2 2 2 2 2 1 1 1 1 1 1 1 2 2 3 3 2
5 3 4 4 2 2 1 1 1 1 2 3 3 3 3 2 3 2 2 1 1 1 1 1 1 2 2 3 3 2 2 1 1 1 0 0 1 1 1 1 2 2 2 2
4 4 5 7 4 3 3 2 1 2 2 3 3 3 3 3 3 3 2 2 2 1 1 1 1 1 2 2 2 2 1 1 1 0 0 1 1 1 1 1 1 1 1 2
7 7 8 6 3 4 3 3 2 2 3 3 3 3 3 3 3 3 3 2 2 2 1 1 1 2 2 2 2 2 1 0 0 0 1 1 1 1 1 1 0 3 1 2
Wind_Direction
197 219 227 236 259 300 297 286 264 109 122 159 138 146 154 164 178 177 182 185 186 191 179 176 180 178 175 174 178 181 184 181 187 193 196 197 201 210 214 224 215 231 241 234
203 224 240 253 239 245 251 259 237 163 137 209 162 167 163 178 190 193 194 194 194 187 174 173 175 176 181 181 185 188 190 188 192 196 206 212 218 221 221 233 220 233 238 239
226 223 207 228 226 233 248 262 260 236 193 196 215 207 179 181 190 195 203 202 194 187 182 182 184 185 185 187 193 194 194 190 195 198 202 206 212 230 225 228 229 233 240 241
231 236 229 230 233 247 251 271 252 230 239 245 253 272 169 183 195 207 207 206 203 193 188 188 190 191 192 193 193 195 194 194 195 199 208 212 218 222 226 235 237 233 234 241
215 218 224 232 243 254 272 277 238 240 252 262 249 271 179 179 215 219 211 207 206 200 195 192 194 194 194 192 190 190 190 195 199 205 209 219 229 229 225 228 231 241 234 234
225 216 235 242 234 224 212 212 214 232 245 252 261 271 253 182 246 224 191 199 202 198 194 193 191 190 192 192 191 190 189 197 200 206 213 220 228 233 233 234 236 238 239 234
214 212 212 221 216 198 216 240 239 236 239 246 216 258 272 59 33 285 215 194 192 193 193 193 191 191 192 193 194 196 193 200 203 206 215 222 226 228 231 238 236 245 250 244
219 214 203 211 229 229 224 245 259 267 271 259 199 248 138 95 93 167 186 180 182 187 192 195 194 193 196 196 196 197 197 200 202 207 215 220 225 229 234 235 244 241 254 259
231 221 187 201 223 238 226 238 257 266 272 274 246 231 182 155 182 169 146 153 171 180 189 190 188 191 195 195 197 200 199 202 204 207 213 216 221 229 235 239 242 246 251 254
247 240 201 188 204 216 249 243 245 255 262 268 255 240 232 186 204 188 176 142 94 144 171 175 179 187 192 195 194 197 199 202 205 207 214 215 221 229 234 240 244 248 251 255
243 239 219 204 219 220 214 226 243 251 258 267 272 252 80 170 233 241 231 190 79 93 156 167 169 176 184 192 192 195 199 201 204 207 212 221 221 226 231 236 243 248 252 252
228 242 236 219 209 236 231 234 237 246 249 256 270 263 89 75 38 292 167 96 65 63 122 154 156 158 173 187 191 194 201 202 206 207 210 217 225 228 232 235 241 245 248 248
216 234 232 220 207 208 228 236 242 250 249 250 257 248 96 83 53 40 62 98 88 72 103 140 147 152 162 175 191 196 206 207 208 208 213 219 227 230 236 241 242 242 245 247
244 240 243 246 242 227 227 230 234 244 248 249 254 268 267 230 306 351 49 117 124 99 105 133 149 165 179 180 189 208 215 211 210 211 216 220 227 231 236 239 240 242 245 245
244 239 239 251 254 250 241 234 229 239 254 260 259 265 277 270 281 282 273 189 134 123 152 163 193 186 209 220 216 222 233 221 217 218 223 225 227 228 233 236 239 241 245 244
256 246 233 234 235 240 245 244 235 237 247 254 263 266 293 267 283 253 248 220 214 225 251 265 285 256 231 234 248 248 249 236 222 222 227 228 228 228 231 234 237 241 244 248
234 233 242 237 229 237 236 238 237 236 242 253 259 267 267 265 281 292 278 249 252 253 278 284 279 276 268 253 238 237 253 256 234 227 230 233 234 231 233 238 238 243 245 245
238 246 245 246 233 238 233 222 241 240 241 256 269 282 270 274 281 289 297 264 269 287 291 299 293 283 284 266 242 229 234 248 246 230 226 230 231 235 239 243 244 248 252 250
233 232 245 245 241 239 220 216 234 240 237 250 260 267 274 275 266 268 352 318 286 282 291 295 297 301 329 325 233 222 236 244 248 243 240 238 233 230 234 242 247 248 252 254
209 225 238 242 251 248 228 195 240 244 229 222 271 275 276 266 268 306 354 324 315 325 333 340 350 18 17 359 280 229 246 252 260 256 249 246 232 229 233 242 245 244 247 250
203 213 228 239 244 244 104 165 213 231 238 16 280 282 280 277 302 324 331 333 333 350 354 355 8 25 27 20 41 296 284 279 282 267 248 239 227 225 229 236 235 243 241 245
227 219 221 233 240 232 91 196 233 359 26 354 321 307 293 283 302 318 341 352 336 350 6 1 354 6 25 24 0 314 321 317 305 276 234 230 231 229 216 218 226 231 235 235
241 266 258 248 249 74 71 10 11 352 343 341 327 321 309 292 280 297 320 339 335 332 344 342 342 358 21 17 350 328 336 330 313 286 245 221 231 228 208 210 217 219 224 236
223 252 258 257 224 209 219 278 316 332 326 324 314 304 299 295 296 292 299 309 307 301 306 319 335 355 351 342 348 348 354 327 293 283 218 170 159 198 204 218 224 224 226 229
254 233 244 253 251 236 222 239 287 320 328 325 319 306 295 288 289 298 294 288 283 270 279 288 298 317 319 328 339 351 5 346 324 319 152 145 161 172 179 208 275 252 280 262
236 241 251 261 261 261 248 254 270 281 296 300 304 300 300 294 292 298 299 295 286 275 276 278 289 300 304 319 338 349 342 233 254 219 215 212 190 179 200 186 82 36 17 85
Height
1503 1501 1500 1497 1496 1498 1498 1500 1502 1502 1501 1502 1505 1507 1510 1514 1515 1517 1519 1521 1523 1524 1526 1528 1529 1530 1532 1532 1533 1535 1536 1537 1538 1539 1540 1542 1543 1543 1544 1544 1544 1545 1545 1545
1500 1500 1496 1496 1498 1499 1499 1502 1501 1500 1501 1503 1504 1506 1507 1511 1513 1515 1517 1519 1521 1523 1524 1526 1527 1529 1530 1531 1532 1533 1534 1536 1537 1538 1539 1541 1542 1542 1543 1543 1543 1543 1544 1544
1498 1495 1496 1497 1498 1499 1498 1499 1499 1501 1501 1500 1503 1506 1506 1508 1511 1514 1515 1517 1518 1520 1522 1524 1525 1527 1528 1529 1530 1531 1532 1534 1535 1537 1539 1540 1540 1541 1542 1542 1542 1542 1542 1542
1495 1494 1495 1496 1497 1496 1500 1494 1497 1500 1501 1499 1501 1508 1504 1503 1506 1509 1512 1514 1516 1518 1520 1522 1523 1525 1526 1527 1528 1530 1531 1532 1534 1535 1537 1538 1539 1539 1540 1540 1540 1540 1540 1540
1495 1494 1495 1497 1496 1495 1496 1495 1496 1497 1498 1500 1498 1503 1501 1500 1503 1504 1507 1511 1513 1515 1517 1519 1520 1522 1524 1525 1527 1528 1529 1530 1532 1533 1535 1535 1537 1537 1538 1538 1538 1538 1538 1538
1491 1493 1494 1494 1494 1494 1495 1496 1496 1495 1495 1509 1502 1504 1504 1495 1499 1500 1504 1508 1511 1513 1515 1517 1519 1520 1522 1524 1525 1526 1527 1528 1530 1531 1532 1533 1534 1534 1535 1536 1536 1536 1537 1536
1494 1492 1493 1494 1494 1495 1495 1500 1507 1510 1508 1506 1498 1502 1501 1495 1497 1500 1502 1505 1508 1511 1513 1514 1516 1518 1519 1521 1522 1524 1525 1526 1527 1529 1530 1530 1531 1532 1532 1533 1534 1534 1534 1534
1496 1497 1491 1491 1492 1493 1493 1495 1509 1518 1513 1502 1500 1501 1496 1495 1498 1500 1502 1504 1507 1508 1510 1512 1513 1515 1517 1518 1520 1521 1522 1523 1525 1526 1527 1528 1529 1529 1530 1530 1531 1531 1531 1532
1489 1493 1487 1489 1490 1489 1493 1492 1488 1496 1501 1504 1497 1496 1493 1495 1497 1499 1501 1503 1505 1506 1508 1510 1511 1513 1514 1516 1517 1518 1520 1521 1522 1523 1524 1525 1526 1526 1527 1527 1527 1528 1528 1529
1485 1494 1486 1488 1489 1491 1488 1488 1491 1496 1512 1514 1502 1498 1495 1495 1496 1497 1500 1502 1504 1505 1507 1508 1509 1511 1512 1513 1514 1516 1517 1518 1519 1521 1522 1522 1522 1523 1523 1524 1524 1524 1524 1525
1485 1491 1489 1487 1491 1491 1492 1492 1492 1492 1495 1507 1509 1500 1488 1492 1495 1497 1499 1501 1503 1504 1505 1506 1507 1509 1510 1511 1512 1513 1514 1515 1517 1518 1518 1519 1519 1520 1520 1520 1520 1521 1521 1521
1487 1486 1490 1488 1485 1486 1486 1488 1491 1499 1501 1497 1500 1499 1487 1492 1494 1497 1498 1501 1503 1504 1504 1505 1506 1507 1508 1509 1510 1511 1512 1513 1514 1515 1516 1516 1517 1517 1517 1517 1517 1518 1518 1518
1488 1489 1497 1494 1491 1488 1487 1487 1486 1486 1490 1495 1500 1498 1489 1493 1495 1498 1499 1501 1503 1503 1504 1505 1506 1506 1507 1507 1508 1509 1510 1510 1511 1512 1513 1513 1514 1514 1514 1514 1514 1514 1514 1515
1491 1486 1490 1495 1489 1484 1488 1487 1486 1487 1489 1493 1494 1493 1491 1492 1495 1498 1500 1501 1502 1503 1503 1504 1505 1506 1506 1506 1506 1506 1507 1508 1509 1509 1510 1510 1510 1511 1511 1511 1511 1511 1511 1511
1489 1487 1486 1484 1482 1483 1485 1486 1487 1489 1487 1489 1489 1489 1490 1492 1495 1498 1500 1501 1501 1502 1502 1503 1504 1504 1504 1505 1504 1504 1505 1505 1506 1506 1507 1507 1507 1507 1507 1507 1507 1507 1507 1508
1489 1488 1488 1489 1485 1484 1486 1485 1485 1487 1486 1487 1488 1489 1489 1493 1496 1497 1499 1500 1500 1501 1501 1502 1502 1502 1502 1502 1502 1502 1502 1502 1502 1503 1503 1504 1504 1504 1504 1504 1504 1504 1503 1504
1489 1490 1491 1488 1484 1487 1490 1486 1485 1486 1485 1486 1489 1489 1490 1492 1494 1496 1498 1499 1499 1499 1500 1500 1500 1500 1500 1499 1499 1499 1499 1499 1499 1500 1500 1500 1500 1500 1500 1501 1501 1500 1500 1500
1493 1493 1489 1486 1491 1499 1485 1482 1483 1484 1485 1486 1488 1489 1491 1492 1494 1495 1496 1497 1498 1498 1498 1498 1498 1498 1497 1497 1497 1497 1497 1496 1496 1496 1496 1496 1497 1497 1497 1497 1497 1497 1497 1497
1491 1492 1489 1487 1488 1486 1483 1482 1483 1485 1486 1488 1489 1490 1491 1492 1492 1493 1495 1496 1496 1496 1496 1496 1496 1495 1495 1494 1493 1493 1493 1493 1493 1493 1493 1493 1493 1493 1493 1494 1494 1494 1494 1493
1489 1490 1490 1488 1492 1491 1482 1481 1484 1485 1487 1488 1490 1490 1491 1491 1489 1490 1494 1494 1494 1495 1495 1494 1494 1493 1492 1492 1491 1491 1490 1490 1490 1489 1489 1490 1490 1490 1490 1491 1491 1491 1491 1490
1488 1490 1489 1488 1488 1480 1481 1483 1484 1490 1489 1490 1491 1491 1492 1492 1492 1494 1493 1493 1493 1493 1493 1492 1492 1491 1491 1490 1489 1489 1488 1487 1487 1487 1487 1487 1487 1488 1488 1488 1488 1488 1488 1488
1484 1484 1488 1486 1488 1486 1484 1484 1485 1488 1491 1491 1491 1492 1492 1492 1493 1493 1493 1492 1492 1492 1492 1491 1490 1490 1489 1488 1488 1487 1486 1486 1485 1485 1485 1485 1485 1486 1486 1485 1485 1485 1485 1486
1483 1483 1479 1481 1484 1487 1487 1488 1490 1491 1491 1492 1492 1491 1492 1492 1492 1492 1492 1491 1491 1491 1491 1490 1490 1489 1488 1487 1487 1486 1485 1484 1484 1483 1483 1483 1483 1483 1483 1483 1483 1483 1483 1484
1485 1488 1486 1485 1483 1487 1489 1489 1490 1491 1491 1491 1491 1491 1491 1491 1491 1491 1490 1490 1490 1489 1489 1489 1488 1488 1487 1486 1486 1485 1484 1483 1483 1482 1482 1481 1481 1481 1481 1481 1482 1482 1482 1482
1485 1487 1485 1485 1486 1487 1488 1489 1490 1490 1490 1490 1490 1490 1490 1489 1489 1489 1489 1488 1488 1488 1487 1487 1486 1486 1486 1485 1485 1484 1483 1482 1482 1481 1481 1480 1480 1480 1479 1480 1480 1480 1480 1480
1485 1485 1484 1482 1485 1485 1486 1488 1489 1489 1489 1489 1488 1488 1488 1488 1487 1487 1487 1486 1486 1486 1486 1485 1485 1485 1485 1484 1484 1483 1482 1481 1481 1481 1480 1480 1480 1479 1479 1479 1478 1478 1478 1478